Regional Weather Roundup
Issued by NWS

Home | Current Version | Previous Version | Graphics & Text | Print | Product List | Glossary On
Versions: 1 2 3 4 5 6 7 8 9 10 11 12 13 14 15 16 17 18 19 20 21 22 23 24 25 26 27 28 29 30 31 32 33 34 35 36 37 38 39 40 41 42 43 44 45 46 47 48 49 50
000
ASUS43 KTOP 222159
RWRKS

WEATHER ROUNDUP FOR KANSAS
NATIONAL WEATHER SERVICE GOODLAND KS
400 PM CST WED FEB 22 2017

NOTE:  "FAIR" INDICATES FEW OR NO CLOUDS BELOW 12,000 FEET WITH NO
SIGNIFICANT WEATHER AND/OR OBSTRUCTIONS TO VISIBILITY.

KSZ001>006-013>018-027>032-041>047-222300-
NORTHWEST KANSAS

CITY           SKY/WX    TMP DP  RH WIND       PRES   REMARKS
GOODLAND       SUNNY     64  20  18 VRB3      29.76F
HAYS             N/A     71  32  23 NW7       29.73S
HILL CITY      CLOUDY    73  23  15 MISG      29.73F
RUSSELL        MOSUNNY   72  31  22 NW9       29.70S
$$

KSZ061>065-074>080-084>089-222300-
SOUTHWEST KANSAS

CITY           SKY/WX    TMP DP  RH WIND       PRES   REMARKS
DODGE CITY     MOSUNNY   75  26  16 NW8       29.74S
ELKHART          N/A     77  23  13 S12         N/A
GARDEN CITY    SUNNY     74  22  14 VRB6      29.73F
LIBERAL        SUNNY     75  25  15 NE8       29.74F
$$

KSZ066>073-081>083-090>101-222300-
SOUTHEAST KANSAS

CITY           SKY/WX    TMP DP  RH WIND       PRES   REMARKS
CHANUTE        SUNNY     81  32  17 SW13      29.66F
COFFEYVILLE    SUNNY     79  41  25 S13       29.67F
HUTCHINSON     SUNNY     80  27  14 W8        29.67S
MEDICINE LODGE   N/A     82  22  11 NW8       29.67F
NEWTON         SUNNY     77  45  32 SW10      29.68S
PARSONS        SUNNY     80  37  21 S13       29.68F
WICHITA INTL   MOSUNNY   76  46  34 S8        29.67S
WICHITA JABRA  SUNNY     76  43  30 S7        29.67F
WINFIELD       SUNNY     75  45  34 S13       29.69F
$$

KSZ007>012-019>026-033>040-048>060-102>105-222300-
NORTHEAST KANSAS

CITY           SKY/WX    TMP DP  RH WIND       PRES   REMARKS
CONCORDIA      MOSUNNY   73  35  25 W12       29.67R
EMPORIA        SUNNY     79  33  19 W10       29.64F
LAWRENCE       SUNNY     81  34  18 W10       29.62F
MANHATTAN      MOSUNNY   80  32  17 W5        29.64S
OLATHE IND     SUNNY     81  37  20 SW16      29.63F
OLATHE EXE     SUNNY     79  36  21 SW12      29.63F
SALINA         CLOUDY    77  32  19 W10       29.68R
TOPEKA BILLARD SUNNY     77  37  23 W8        29.63F
TOPEKA FORBES  SUNNY     78  36  21 W9        29.64F
$$




USA.gov is the U.S. government's official web portal to all federal, state and local government web resources and services.